1529186401.15,59071,17.0,74074.0,3.19,-7.35,-7.99,0,*7A
1529186402.41,59072,17.0,74070.5,3.19,-7.35,-7.99,0,*79
1529186403.64,59073,17.0,74072.0,3.17,-7.39,-8.03,0,*76
1529186404.9,59074,17.0,74070.8,3.19,-7.43,-7.99,0,*7E
1529186406.16,59075,17.0,74074.5,3.19,-7.35,-7.95,0,*72
1529186407.42,59076,17.0,74064.5,3.19,-7.43,-7.99,0,*7C
1529186408.68,59077,17.0,74060.0,3.19,-7.35,-7.95,0,*70
1529186409.92,59078,17.0,74062.3,3.19,-7.35,-7.83,0,*78
1529186411.14,59079,17.0,74066.5,3.19,-7.23,-7.83,0,*7E
1529186412.35,59080,17.0,74066.8,3.19,-7.23,-7.83,0,*78
1529186413.59,59081,17.0,74066.8,3.19,-7.31,-7.83,0,*7A
1529186414.82,59082,17.0,74062.0,3.19,-7.31,-7.87,0,*7D
1529186416.07,59083,17.0,74066.8,3.19,-7.23,-7.73,0,*74
1529186417.3,59084,17.0,74060.8,3.17,-7.27,-7.77,0,*7D
1529186418.56,59085,17.0,74060.8,3.19,-7.31,-7.69,0,*7A
1529186419.82,59086,17.0,74060.5,3.19,-7.31,-7.73,0,*72
1529186421.08,59087,17.0,74066.8,3.19,-7.31,-7.69,0,*78
1529186422.33,59088,17.0,74070.0,3.19,-7.31,-7.69,0,*77
1529186423.59,59089,17.0,74070.8,3.19,-7.31,-7.69,0,*76
1529186424.83,59090,17.0,74072.8,3.19,-7.23,-7.61,0,*75
1529186426.07,59091,17.0,74068.8,3.19,-7.23,-7.57,0,*71
1529186427.33,59092,17.0,74064.5,3.19,-7.27,-7.43,0,*73
1529186428.54,59093,17.0,74068.0,3.19,-7.23,-7.49,0,*7C
1529186429.79,59094,17.0,74074.0,3.19,-7.19,-7.43,0,*78
1529186431.03,59095,17.0,74076.5,3.19,-7.15,-7.31,0,*70
1529186432.27,59096,17.0,74076.5,3.19,-7.15,-7.31,0,*73
1529186433.5,59097,17.0,74078.8,3.19,-7.15,-7.31,0,*72
1529186434.74,59098,17.0,74078.8,3.19,-7.15,-7.31,0,*7D
1529186435.98,59099,17.0,74080.5,3.19,-7.15,-7.31,0,*7C
1529186437.22,59100,17.0,74080.3,3.19,-7.15,-7.31,0,*7D
1529186438.46,59101,17.0,74078.0,3.19,-7.15,-7.31,0,*7C
1529186439.67,59102,17.0,74068.3,3.19,-7.15,-7.23,0,*7C
1529186440.89,59103,17.0,74064.0,3.19,-7.15,-7.23,0,*7D
1529186442.11,59104,17.0,74068.5,3.19,-7.15,-7.23,0,*7A
1529186443.33,59105,17.0,74070.0,3.19,-7.15,-7.23,0,*7B
1529186444.54,59106,17.0,74068.0,3.19,-7.15,-7.19,0,*71
1529186445.77,59107,17.0,74070.3,3.19,-7.15,-7.05,0,*7D
1529186446.98,59108,17.0,74064.5,3.19,-7.15,-7.15,0,*73
1529186448.22,59109,17.0,74060.8,3.19,-7.05,-7.15,0,*73
1529186449.48,59110,17.0,74062.5,3.19,-7.01,-7.05,0,*7E
1529186450.71,59111,17.0,74058.8,3.19,-7.05,-7.15,0,*7A
1529186451.97,59112,17.0,74064.5,3.19,-7.01,-7.01,0,*78
1529186453.23,59113,17.0,74064.8,3.19,-7.01,-6.93,0,*73
1529186454.49,59114,17.0,74066.0,3.19,-7.01,-6.93,0,*74
1529186455.76,59115,17.0,74072.3,3.19,-6.93,-6.93,0,*7F
1529186457.0,59116,17.0,74068.8,3.19,-7.01,-6.81,0,*75
1529186458.22,59117,17.0,74066.8,3.21,-6.93,-6.89,0,*7D
1529186459.46,59118,17.0,74064.3,3.19,-6.93,-6.81,0,*71
1529186460.68,59119,17.0,74064.0,3.19,-6.89,-6.81,0,*7B
1529186461.88,59120,17.0,74064.3,3.19,-6.89,-6.69,0,*77
1529186463.13,59121,17.0,74074.0,3.19,-6.77,-6.63,0,*7D
1529186464.33,59122,17.0,74068.0,3.19,-6.69,-6.55,0,*74
1529186465.55,59123,17.0,74070.8,3.19,-6.77,-6.55,0,*7A
1529186466.78,59124,17.0,74068.8,3.19,-6.63,-6.51,0,*7C
1529186467.99,59125,17.0,74070.5,3.19,-6.69,-6.51,0,*77
1529186469.21,59126,17.0,74062.0,3.19,-6.77,-6.51,0,*7B
1529186470.42,59127,17.0,74062.3,3.19,-6.69,-6.51,0,*75
1529186471.65,59128,17.0,74066.8,3.19,-6.63,-6.43,0,*73
1529186472.86,59129,17.0,74066.0,3.19,-6.69,-6.51,0,*7B
1529186474.05,59130,17.0,74070.5,3.21,-6.69,-6.51,0,*78
1529186475.26,59131,17.0,74066.0,3.21,-6.63,-6.35,0,*71
1529186476.45,59132,17.0,74066.8,3.21,-6.55,-6.35,0,*77
1529186477.64,59133,17.0,74062.8,3.21,-6.55,-6.35,0,*76
1529186478.83,59134,17.0,74062.0,3.21,-6.55,-6.35,0,*71
1529186480.05,59135,17.0,74060.3,3.21,-6.55,-6.27,0,*73
1529186481.26,59136,17.0,74056.5,3.21,-6.51,-6.23,0,*70
1529186482.47,59137,17.0,74062.0,3.21,-6.43,-6.23,0,*72
1529186483.66,59138,17.0,74060.0,3.21,-6.51,-6.13,0,*7D
1529186484.85,59139,17.0,74058.5,3.21,-6.51,-6.13,0,*7C
1529186486.04,59140,17.0,74062.3,3.25,-6.51,-6.09,0,*7D
1529186487.23,59141,17.0,74060.8,3.21,-6.55,-6.13,0,*77
1529186488.44,59142,17.0,74060.0,3.25,-6.47,-6.19,0,*79
1529186489.63,59143,17.0,74060.0,3.21,-6.51,-6.13,0,*71
1529186490.82,59144,17.0,74060.5,3.21,-6.55,-6.13,0,*72
1529186492.03,59145,17.0,74066.0,3.21,-6.55,-6.23,0,*70
1529186493.24,59146,17.0,74062.5,3.21,-6.51,-6.23,0,*77
1529186494.46,59147,17.0,74066.0,3.21,-6.51,-6.23,0,*76
1529186495.65,59148,17.0,74064.3,3.21,-6.51,-6.13,0,*7A
1529186496.83,59149,17.0,74064.5,3.21,-6.39,-6.01,0,*76
1529186498.02,59150,17.0,74066.0,3.21,-6.39,-5.97,0,*72
1529186499.23,59151,17.0,74064.0,3.21,-6.39,-5.85,0,*70
1529186500.42,59152,17.0,74064.8,3.21,-6.39,-5.97,0,*70
1529186501.63,59153,17.0,74070.0,3.21,-6.39,-5.89,0,*7E
1529186502.85,59154,17.0,74070.3,3.25,-6.35,-5.81,0,*79
1529186504.07,59155,17.0,74072.3,3.21,-6.35,-5.85,0,*78
1529186505.29,59156,17.0,74070.5,3.21,-6.35,-5.77,0,*76
1529186506.5,59157,17.0,74072.5,3.21,-6.35,-5.77,0,*77
1529186507.73,59158,17.0,74070.5,3.21,-6.27,-5.77,0,*7B
1529186508.97,59159,17.0,74066.0,3.21,-6.27,-5.77,0,*7A
1529186510.2,59160,17.0,74066.5,3.21,-6.23,-5.65,0,*77
1529186511.44,59161,17.0,74068.8,3.21,-6.23,-5.65,0,*76
1529186512.66,59162,17.0,74068.3,3.21,-6.13,-5.65,0,*76
1529186513.84,59163,17.0,74066.3,3.25,-6.05,-5.51,0,*73
1529186515.06,59164,17.0,74068.8,3.25,-6.05,-5.61,0,*77
1529186516.25,59165,17.0,74070.3,3.25,-6.05,-5.55,0,*71
1529186517.43,59166,17.0,74070.5,3.25,-6.05,-5.55,0,*72
1529186518.66,59167,17.0,74068.0,3.21,-6.09,-5.61,0,*7C
1529186519.87,59168,17.0,74066.3,3.25,-6.13,-5.65,0,*78
1529186521.08,59169,17.0,74064.0,3.21,-6.13,-5.65,0,*7D
1529186522.31,59170,17.0,74064.5,3.21,-6.09,-5.61,0,*7A
1529186523.53,59171,17.0,74068.8,3.21,-6.09,-5.61,0,*7B
1529186524.75,59172,17.0,74068.3,3.21,-6.01,-5.61,0,*70
1529186525.93,59173,17.0,74066.8,3.25,-6.05,-5.47,0,*75
1529186527.15,59174,17.0,74070.0,3.21,-6.01,-5.61,0,*76
1529186528.34,59175,17.0,74064.8,3.21,-6.09,-5.51,0,*7C
1529186529.54,59176,17.0,74062.8,3.25,-5.97,-5.55,0,*7B
1529186530.73,59177,17.0,74064.8,3.21,-6.01,-5.51,0,*76
1529186531.92,59178,17.0,74072.5,3.21,-6.01,-5.47,0,*7E
1529186533.11,59179,17.0,74070.5,3.21,-5.97,-5.47,0,*73
1529186534.3,59180,17.0,74064.5,3.21,-6.01,-5.43,0,*7D
1529186535.49,59181,17.0,74066.0,3.21,-5.97,-5.35,0,*71
1529186536.73,59182,17.0,74066.5,3.25,-5.93,-5.31,0,*76
1529186537.94,59183,17.0,74070.8,3.21,-5.89,-5.43,0,*7D
1529186539.16,59184,17.0,74066.0,3.21,-5.85,-5.43,0,*76
1529186540.38,59185,17.0,74070.8,3.21,-5.77,-5.35,0,*7B
1529186541.62,59186,17.0,74072.0,3.21,-5.77,-5.31,0,*7C
1529186542.86,59187,17.0,74070.8,3.25,-5.81,-5.15,0,*76
1529186544.1,59188,17.0,74072.0,3.25,-5.81,-5.19,0,*75
1529186545.34,59189,17.0,74070.3,3.21,-5.73,-5.31,0,*77
1529186546.57,59190,17.0,74070.5,3.25,-5.73,-5.27,0,*7C
1529186547.82,59191,17.0,74068.8,3.21,-5.77,-5.23,0,*79
1529186549.05,59192,17.0,74072.5,3.25,-5.73,-5.15,0,*7F
1529186550.29,59193,17.0,74072.5,3.21,-5.73,-5.23,0,*7F
1529186551.53,59194,17.0,74076.5,3.25,-5.73,-5.15,0,*79
1529186552.77,59195,17.0,74068.5,3.25,-5.69,-5.15,0,*73
1529186554.02,59196,17.0,74066.8,3.21,-5.69,-5.23,0,*71
1529186555.25,59197,17.0,74062.3,3.25,-5.61,-5.15,0,*79
1529186556.49,59198,17.0,74064.0,3.21,-5.73,-5.19,0,*7D
1529186557.73,59199,17.0,74066.8,3.21,-5.65,-5.19,0,*7B
1529186558.98,59200,17.0,74064.5,3.21,-5.65,-5.11,0,*70
1529186560.22,59201,17.0,74070.5,3.25,-5.69,-5.07,0,*7E
1529186561.46,59202,17.0,74072.3,3.25,-5.61,-5.07,0,*75
1529186562.7,59203,17.0,74072.5,3.25,-5.61,-5.07,0,*74
1529186563.93,59204,17.0,74074.3,3.25,-5.61,-5.15,0,*70
1529186565.18,59205,17.0,74068.3,3.25,-5.65,-5.19,0,*79
1529186566.42,59206,17.0,74068.5,3.25,-5.69,-5.07,0,*79
1529186567.64,59207,17.0,74070.5,3.25,-5.55,-5.03,0,*73
1529186568.86,59208,17.0,74066.5,3.25,-5.47,-5.07,0,*7B
1529186570.08,59209,17.0,74066.8,3.25,-5.55,-5.03,0,*7D
1529186571.33,59210,17.0,74068.3,3.27,-5.55,-5.03,0,*77
1529186572.57,59211,17.0,74070.0,3.27,-5.47,-5.03,0,*75
1529186573.81,59212,17.0,74066.3,3.27,-5.47,-4.93,0,*7E
1529186575.05,59213,17.0,74068.3,3.27,-5.55,-4.93,0,*7C
1529186576.3,59214,17.0,74068.8,3.27,-5.55,-5.03,0,*73
1529186577.54,59215,17.0,74068.0,3.27,-5.47,-4.89,0,*72
1529186578.78,59216,17.0,74072.5,3.27,-5.55,-4.93,0,*79
1529186580.02,59217,17.0,74074.5,3.27,-5.47,-4.93,0,*7B
1529186581.26,59218,16.94,74070.0,3.27,-5.55,-4.93,0,*77
1529186582.5,59219,17.0,74072.8,3.27,-5.55,-4.93,0,*76
1529186583.74,59220,17.0,74074.8,3.27,-5.55,-4.93,0,*7C
1529186584.98,59221,17.0,74070.3,3.27,-5.47,-4.93,0,*7E
1529186586.22,59222,17.0,74072.3,3.27,-5.47,-4.93,0,*7D
1529186587.47,59223,17.0,74072.5,3.27,-5.55,-5.03,0,*77
1529186588.71,59224,17.0,74072.0,3.27,-5.55,-4.93,0,*78
1529186589.95,59225,16.94,74068.3,3.27,-5.47,-5.03,0,*72
1529186591.19,59226,17.0,74070.3,3.27,-5.47,-4.93,0,*79
1529186592.42,59227,17.0,74070.3,3.27,-5.47,-4.93,0,*78
1529186593.66,59228,17.0,74068.8,3.27,-5.47,-4.93,0,*77
1529186594.9,59229,17.0,74070.8,3.27,-5.47,-4.93,0,*76
1529186596.11,59230,17.0,74070.3,3.29,-5.43,-4.89,0,*7F
1529186597.35,59231,17.0,74070.8,3.27,-5.47,-4.93,0,*7F
1529186598.59,59232,17.0,74070.5,3.27,-5.47,-4.93,0,*7C
1529186599.83,59233,17.0,74070.0,3.27,-5.47,-5.07,0,*71
1529186601.05,59234,17.0,74070.8,3.29,-5.39,-4.89,0,*76
1529186602.27,59235,17.0,74070.8,3.29,-5.43,-4.89,0,*7A
1529186603.51,59236,17.0,74070.8,3.27,-5.47,-5.03,0,*70
1529186604.76,59237,17.0,74070.0,3.27,-5.47,-5.03,0,*71
1529186605.99,59238,16.94,74070.0,3.27,-5.47,-4.93,0,*76
1529186607.2,59239,17.0,74068.3,3.29,-5.43,-4.93,0,*7D
1529186608.4,59240,17.0,74068.8,3.29,-5.51,-4.99,0,*7A
1529186609.64,59241,17.0,74068.0,3.27,-5.47,-5.03,0,*70
1529186610.89,59242,17.0,74068.5,3.27,-5.55,-5.07,0,*74
1529186612.11,59243,17.0,74066.5,3.29,-5.43,-5.03,0,*78
1529186613.33,59244,17.0,74068.8,3.29,-5.51,-5.03,0,*7C
1529186614.55,59245,17.0,74068.0,3.29,-5.43,-4.89,0,*7D
1529186615.73,59246,17.0,74070.3,3.29,-5.43,-4.99,0,*7F
1529186616.95,59247,17.0,74064.8,3.29,-5.43,-5.03,0,*7C
1529186618.17,59248,17.0,74068.0,3.29,-5.51,-5.15,0,*77
1529186619.4,59249,17.0,74070.8,3.29,-5.55,-5.19,0,*7E
1529186620.66,59250,16.94,74062.5,3.27,-5.61,-5.19,0,*7F
1529186621.89,59251,17.0,74064.0,3.29,-5.55,-5.15,0,*7B
1529186623.11,59252,16.94,74060.5,3.29,-5.55,-5.11,0,*7C
1529186624.33,59253,17.0,74064.3,3.29,-5.43,-5.11,0,*7A
1529186625.55,59254,17.0,74060.8,3.29,-5.51,-5.15,0,*7A
1529186626.77,59255,16.94,74064.0,3.29,-5.51,-5.15,0,*7B
1529186627.99,59256,16.94,74066.0,3.29,-5.51,-5.11,0,*7C
1529186629.22,59257,16.94,74064.5,3.29,-5.51,-5.15,0,*79
1529186630.44,59258,16.94,74068.0,3.29,-5.55,-5.15,0,*72
1529186631.69,59259,16.94,74064.8,3.29,-5.65,-5.23,0,*75
1529186632.92,59260,16.94,74066.8,3.29,-5.55,-5.23,0,*7C
1529186634.17,59261,17.0,74064.3,3.29,-5.65,-5.27,0,*7A
1529186635.39,59262,17.0,74064.8,3.29,-5.77,-5.39,0,*75
1529186636.62,59263,16.94,74062.3,3.31,-5.81,-5.43,0,*79
1529186637.86,59264,17.0,74064.3,3.31,-5.81,-5.51,0,*7D
1529186639.1,59265,16.94,74068.8,3.31,-5.89,-5.51,0,*74
1529186640.33,59266,17.0,74060.5,3.29,-5.89,-5.51,0,*7E
1529186641.55,59267,17.0,74064.0,3.29,-5.89,-5.51,0,*7F
1529186642.79,59268,16.94,74064.3,3.29,-5.93,-5.65,0,*7C
1529186644.02,59269,17.0,74070.0,3.29,-5.89,-5.55,0,*75
1529186645.24,59270,16.94,74068.5,3.29,-5.89,-5.51,0,*79
1529186646.47,59271,17.0,74070.3,3.27,-5.97,-5.69,0,*72
1529186647.7,59272,16.94,74068.3,3.29,-5.93,-5.55,0,*74
1529186648.94,59273,17.0,74070.0,3.27,-6.01,-5.65,0,*70
1529186650.14,59274,17.0,74074.3,3.29,-6.01,-5.55,0,*7A
1529186651.38,59275,17.0,74068.3,3.29,-5.93,-5.65,0,*70
1529186652.63,59276,16.94,74068.5,3.29,-5.93,-5.65,0,*73
1529186653.87,59277,16.94,74064.8,3.31,-6.01,-5.65,0,*73
1529186655.09,59278,17.0,74072.0,3.29,-6.01,-5.65,0,*75
1529186656.31,59279,17.0,74066.0,3.29,-5.93,-5.55,0,*7F
1529186657.55,59280,16.94,74064.8,3.27,-5.97,-5.69,0,*7C
1529186658.78,59281,16.94,74060.0,3.27,-6.05,-5.73,0,*7E
1529186660.0,59282,16.94,74056.5,3.29,-6.05,-5.69,0,*78
1529186661.23,59283,17.0,74064.5,3.31,-6.05,-5.77,0,*7F
1529186662.46,59284,16.94,74070.8,3.27,-6.09,-5.73,0,*77
1529186663.68,59285,16.94,74072.3,3.29,-6.01,-5.69,0,*7B
1529186664.9,59286,17.0,74074.0,3.29,-6.13,-5.65,0,*77
1529186666.12,59287,16.94,74070.3,3.29,-6.01,-5.65,0,*75
1529186667.33,59288,16.94,74068.0,3.29,-6.01,-5.65,0,*7A
1529186668.55,59289,17.0,74074.8,3.29,-6.01,-5.65,0,*7B
1529186669.78,59290,16.94,74068.8,3.27,-6.05,-5.73,0,*7E
1529186671.0,59291,16.94,74070.0,3.29,-6.05,-5.69,0,*7A
1529186672.26,59292,16.94,74068.0,3.27,-6.19,-5.73,0,*71
1529186673.5,59293,16.94,74066.8,3.29,-6.19,-5.77,0,*7A
1529186674.76,59294,16.94,74070.8,3.27,-6.19,-5.81,0,*7A
1529186676.01,59295,17.0,74068.3,3.29,-6.19,-5.77,0,*7C
1529186677.27,59296,16.94,74066.5,3.27,-6.23,-5.81,0,*71
1529186678.51,59297,16.94,74060.8,3.29,-6.27,-5.81,0,*7A
1529186679.75,59298,17.0,74064.3,3.27,-6.31,-5.85,0,*78
1529186680.99,59299,16.94,74066.8,3.27,-6.31,-5.89,0,*75
1529186682.23,59300,16.94,74066.3,3.29,-6.27,-5.89,0,*7D
1529186683.47,59301,16.94,74068.8,3.27,-6.31,-5.93,0,*7E
1529186684.68,59302,16.94,74070.8,3.29,-6.27,-6.01,0,*7C
1529186685.89,59303,16.94,74066.8,3.27,-6.31,-5.97,0,*78
1529186687.13,59304,16.94,74062.3,3.29,-6.27,-5.93,0,*72
1529186688.34,59305,17.0,74066.0,3.27,-6.35,-6.05,0,*72
1529186689.58,59306,16.94,74064.8,3.29,-6.27,-5.93,0,*70
1529186690.79,59307,17.0,74064.0,3.27,-6.35,-6.05,0,*70
1529186691.98,59308,16.94,74066.5,3.29,-6.31,-6.05,0,*75
1529186693.18,59309,16.94,74064.3,3.27,-6.47,-6.09,0,*77
1529186694.42,59310,16.94,74064.3,3.27,-6.47,-6.19,0,*7E
1529186695.64,59311,17.0,74064.0,3.29,-6.47,-6.19,0,*71
1529186696.86,59312,17.0,74064.0,3.29,-6.43,-6.19,0,*76
1529186698.08,59313,16.94,74062.0,3.29,-6.55,-6.27,0,*7D
1529186699.29,59314,17.0,74064.0,3.29,-6.47,-6.27,0,*79
1529186700.5,59315,17.0,74062.8,3.29,-6.47,-6.27,0,*78
1529186701.72,59316,16.94,74060.0,3.27,-6.59,-6.47,0,*7C
1529186702.91,59317,17.0,74064.0,3.29,-6.59,-6.43,0,*77
1529186704.11,59318,16.94,74064.5,3.29,-6.59,-6.43,0,*78
1529186705.34,59319,17.0,74066.0,3.27,-6.63,-6.47,0,*7A
1529186706.53,59320,16.94,74060.0,3.29,-6.73,-6.55,0,*7C
1529186707.72,59321,16.94,74066.8,3.29,-6.69,-6.47,0,*75
1529186708.93,59322,17.0,74064.8,3.27,-6.77,-6.51,0,*70
1529186710.12,59323,17.0,74066.8,3.29,-6.73,-6.55,0,*7F
1529186711.31,59324,17.0,74064.0,3.29,-6.85,-6.69,0,*7E
1529186712.5,59325,17.0,74066.8,3.29,-6.85,-6.59,0,*7C
1529186713.72,59326,16.94,74066.3,3.29,-6.93,-6.69,0,*7B
1529186714.94,59327,17.0,74070.0,3.29,-6.93,-6.59,0,*79
1529186716.15,59328,16.94,74062.5,3.29,-6.93,-6.69,0,*75
1529186717.37,59329,16.94,74066.0,3.29,-6.93,-6.69,0,*74
1529186718.59,59330,16.94,74066.8,3.29,-6.97,-6.81,0,*7E
1529186719.84,59331,16.94,74062.0,3.29,-6.97,-6.93,0,*7C
1529186721.05,59332,16.94,74064.0,3.29,-6.97,-6.85,0,*78
1529186722.3,59333,16.94,74064.3,3.29,-6.97,-6.93,0,*7E
1529186723.51,59334,16.94,74066.3,3.29,-6.97,-6.85,0,*7E
1529186724.75,59335,17.0,74064.0,3.27,-7.15,-7.01,0,*77
1529186725.96,59336,16.94,74068.3,3.29,-7.11,-7.05,0,*7A
1529186727.18,59337,16.94,74066.8,3.27,-7.19,-7.11,0,*78
1529186728.4,59338,16.94,74068.0,3.31,-7.23,-7.11,0,*79
1529186729.62,59339,16.94,74066.3,3.31,-7.23,-7.11,0,*78
1529186730.81,59340,16.94,74064.5,3.29,-7.23,-7.15,0,*7B
1529186732.05,59341,16.94,74064.8,3.27,-7.27,-7.19,0,*7C
1529186733.27,59342,16.94,74060.8,3.29,-7.35,-7.23,0,*7B
1529186734.52,59343,17.0,74064.8,3.27,-7.39,-7.27,0,*7C
1529186735.74,59344,16.94,74064.5,3.29,-7.35,-7.23,0,*7D
1529186736.98,59345,16.94,74066.5,3.29,-7.35,-7.27,0,*78
1529186738.23,59346,16.94,74066.5,3.29,-7.35,-7.27,0,*7B
1529186739.46,59347,16.94,74066.5,3.29,-7.39,-7.27,0,*76
1529186740.68,59348,16.94,74066.3,3.29,-7.49,-7.35,0,*7D
1529186741.89,59349,16.94,74062.5,3.29,-7.49,-7.35,0,*7C
1529186743.1,59350,16.94,74062.5,3.29,-7.49,-7.35,0,*74
1529186744.31,59351,16.94,74064.5,3.29,-7.49,-7.39,0,*79
1529186745.53,59352,16.94,74062.8,3.29,-7.53,-7.39,0,*71
1529186746.77,59353,17.0,74066.8,3.29,-7.61,-7.39,0,*71
1529186747.99,59354,16.94,74062.3,3.29,-7.61,-7.49,0,*71
1529186749.2,59355,16.94,74062.0,3.29,-7.61,-7.53,0,*7B
1529186750.45,59356,16.94,74062.3,3.29,-7.73,-7.61,0,*7A
1529186751.69,59357,16.94,74064.8,3.29,-7.65,-7.65,0,*78
1529186752.95,59358,16.94,74066.3,3.27,-7.77,-7.69,0,*76
1529186754.17,59359,16.94,74066.5,3.29,-7.73,-7.53,0,*74
1529186755.41,59360,16.94,74066.5,3.29,-7.77,-7.65,0,*7F
1529186756.66,59361,16.94,74064.5,3.29,-7.73,-7.65,0,*7A
1529186757.91,59362,16.94,74070.0,3.29,-7.73,-7.77,0,*7A
1529186759.12,59363,16.94,74066.5,3.29,-7.87,-7.77,0,*70
1529186760.34,59364,16.94,74066.3,3.31,-7.87,-7.87,0,*71
1529186761.55,59365,16.94,74068.5,3.31,-7.87,-7.87,0,*70
1529186762.81,59366,16.94,74066.5,3.31,-7.91,-7.91,0,*73
1529186764.04,59367,16.94,74066.5,3.31,-7.87,-7.91,0,*75
1529186765.31,59368,17.0,74068.5,3.33,-7.95,-7.95,0,*7F
1529186766.57,59369,16.94,74066.3,3.31,-7.99,-7.99,0,*7C
1529186767.82,59370,16.94,74068.0,3.31,-8.03,-8.03,0,*74
1529186769.07,59371,16.94,74070.3,3.31,-8.03,-8.03,0,*75
1529186770.34,59372,16.94,74064.0,3.33,-8.03,-7.99,0,*78
1529186771.6,59373,16.94,74066.8,3.33,-8.03,-8.03,0,*75
1529186772.86,59374,16.94,74062.8,3.33,-8.03,-8.03,0,*72
1529186774.13,59375,16.94,74064.8,3.33,-8.11,-8.03,0,*70
1529186775.37,59376,16.94,74064.5,3.33,-8.17,-8.11,0,*76
1529186776.62,59377,16.94,74066.3,3.33,-8.11,-8.25,0,*76
1529186777.83,59378,16.94,74064.0,3.33,-8.29,-8.25,0,*72
1529186779.05,59379,16.94,74066.8,3.33,-8.37,-8.25,0,*7C
1529186780.27,59380,17.0,74068.3,3.33,-8.29,-8.29,0,*79
1529186781.49,59381,16.94,74064.3,3.33,-8.41,-8.37,0,*79
1529186782.71,59382,16.94,74066.0,3.31,-8.41,-8.45,0,*7D
1529186783.93,59383,16.94,74062.0,3.33,-8.55,-8.41,0,*7F
1529186785.17,59384,16.94,74064.5,3.33,-8.55,-8.51,0,*79
1529186786.38,59385,16.94,74064.3,3.31,-8.59,-8.55,0,*72
1529186787.59,59386,16.94,74062.8,3.33,-8.55,-8.63,0,*7A
1529186788.81,59387,16.94,74060.8,3.33,-8.55,-8.63,0,*7B
1529186790.02,59388,16.94,74064.0,3.31,-8.55,-8.67,0,*72
1529186791.23,59389,16.94,74062.8,3.33,-8.63,-8.67,0,*74
1529186792.42,59390,17.0,74068.3,3.35,-8.63,-8.71,0,*7D
1529186793.67,59391,16.94,74066.8,3.31,-8.81,-8.81,0,*7B
1529186794.91,59392,16.94,74066.8,3.33,-8.81,-8.75,0,*71
1529186796.15,59393,16.94,74066.5,3.33,-8.81,-8.93,0,*78
1529186797.37,59394,17.0,74070.8,3.31,-8.89,-8.97,0,*71
1529186798.58,59395,16.94,74068.0,3.31,-8.89,-8.97,0,*70
1529186799.8,59396,16.94,74070.3,3.31,-8.97,-9.01,0,*72
1529186801.01,59397,17.0,74068.0,3.31,-8.97,-9.01,0,*73
1529186802.28,59398,16.94,74070.0,3.31,-9.11,-9.11,0,*72
1529186803.53,59399,16.94,74066.5,3.33,-8.97,-9.11,0,*7E
1529186804.77,59400,16.94,74064.0,3.31,-9.01,-9.11,0,*75
1529186805.99,59401,16.94,74064.3,3.33,-8.97,-9.05,0,*7D
1529186807.21,59402,16.94,74066.8,3.31,-9.01,-9.23,0,*76
1529186808.46,59403,16.94,74070.5,3.33,-9.05,-9.11,0,*70
1529186809.7,59404,16.94,74068.0,3.31,-9.11,-9.23,0,*71
1529186810.95,59405,16.94,74066.3,3.33,-9.11,-9.19,0,*7B
1529186812.16,59406,16.94,74068.0,3.33,-9.19,-9.23,0,*79
1529186813.41,59407,16.94,74070.5,3.31,-9.15,-9.19,0,*7F
1529186814.62,59408,16.94,74068.8,3.33,-9.23,-9.31,0,*7D
1529186815.84,59409,16.94,74066.8,3.33,-9.23,-9.31,0,*7C
1529186817.08,59410,16.94,74064.5,3.31,-9.27,-9.37,0,*74
1529186818.35,59411,16.94,74066.3,3.31,-9.37,-9.37,0,*74
1529186819.58,59412,16.94,74068.3,3.31,-9.27,-9.41,0,*77
1529186820.82,59413,16.94,74064.3,3.31,-9.27,-9.41,0,*76
1529186822.09,59414,16.94,74068.0,3.31,-9.37,-9.49,0,*78
1529186823.33,59415,16.94,74064.0,3.33,-9.31,-9.45,0,*71
1529186824.6,59416,16.94,74064.3,3.31,-9.37,-9.49,0,*7A
1529186825.86,59417,16.94,74068.3,3.31,-9.41,-9.49,0,*7A
1529186827.14,59418,17.0,74068.5,3.33,-9.37,-9.49,0,*76
1529186828.41,59419,16.94,74068.8,3.33,-9.37,-9.49,0,*77
1529186829.67,59420,17.0,74068.8,3.31,-9.49,-9.53,0,*7D
1529186830.94,59421,16.94,74068.3,3.33,-9.45,-9.49,0,*79
1529186832.2,59422,16.94,74064.8,3.31,-9.53,-9.53,0,*74
1529186833.47,59423,16.94,74070.0,3.31,-9.41,-9.61,0,*77
1529186834.7,59424,16.94,74068.8,3.31,-9.49,-9.67,0,*7E
1529186835.96,59425,16.94,74068.8,3.31,-9.53,-9.61,0,*72
1529186837.23,59426,16.94,74070.5,3.33,-9.49,-9.61,0,*78
1529186838.46,59427,16.94,74068.3,3.31,-9.53,-9.67,0,*76
1529186839.72,59428,16.94,74068.5,3.31,-9.61,-9.61,0,*7E
1529186840.95,59429,16.94,74068.8,3.31,-9.61,-9.67,0,*79
1529186842.19,59430,17.0,74072.0,3.31,-9.53,-9.67,0,*70
1529186843.42,59431,16.94,74068.0,3.31,-9.53,-9.67,0,*71
1529186844.65,59432,16.94,74068.3,3.31,-9.61,-9.79,0,*7C
1529186845.86,59433,16.94,74066.5,3.31,-9.67,-9.79,0,*7B
1529186847.08,59434,16.94,74064.8,3.31,-9.67,-9.79,0,*7C
1529186848.29,59435,16.94,74070.0,3.31,-9.67,-9.79,0,*7D
1529186849.5,59436,16.94,74068.0,3.31,-9.67,-9.79,0,*7E
1529186850.74,59437,16.94,74070.3,3.31,-9.71,-9.83,0,*7D
1529186851.98,59438,16.94,74068.5,3.31,-9.71,-9.83,0,*72
1529186853.19,59439,16.94,74068.3,3.31,-9.79,-9.93,0,*7A
1529186854.41,59440,16.94,74066.8,3.33,-9.75,-9.89,0,*71
1529186855.61,59441,17.0,74068.5,3.29,-9.79,-9.93,0,*7C
1529186856.84,59442,16.94,74066.8,3.31,-9.83,-9.93,0,*73
1529186858.07,59443,16.94,74070.5,3.31,-9.83,-9.93,0,*72
1529186859.3,59444,16.94,74070.5,3.31,-9.83,-9.97,0,*71
1529186860.52,59445,17.0,74070.5,3.31,-9.79,-9.97,0,*75
1529186861.72,59446,16.94,74070.0,3.31,-9.93,-9.97,0,*72
1529186862.93,59447,16.94,74066.8,3.31,-9.93,-9.97,0,*73
1529186864.14,59448,16.94,74070.0,3.31,-9.93,-9.93,0,*78
1529186865.35,59449,16.94,74064.5,3.33,-9.89,-9.93,0,*70
1529186866.56,59450,16.94,74066.8,3.31,-9.93,-9.97,0,*75
1529186867.76,59451,16.94,74066.8,3.31,-9.93,-9.97,0,*74
1529186868.95,59452,16.94,74068.5,3.29,-9.97,-9.97,0,*7A
1529186870.16,59453,16.94,74064.3,3.31,-9.97,-9.97,0,*72
1529186871.37,59454,16.94,74066.5,3.33,-9.93,-9.93,0,*77
1529186872.58,59455,16.94,74070.0,3.31,-9.97,-9.97,0,*74
1529186873.79,59456,16.94,74068.5,3.31,-9.97,-10.05,0,*44
1529186875.0,59457,16.94,74068.8,3.31,-9.97,-9.97,0,*76
1529186876.21,59458,16.94,74068.0,3.31,-9.97,-10.09,0,*46
1529186877.42,59459,16.94,74068.3,3.31,-9.97,-10.05,0,*4B
1529186878.63,59460,16.94,74070.0,3.31,-10.05,-10.05,0,*72
1529186879.85,59461,16.94,74066.5,3.31,-10.09,-10.09,0,*73
1529186881.06,59462,16.94,74070.8,3.31,-10.09,-10.09,0,*70
1529186882.29,59463,16.94,74070.0,3.33,-10.05,-10.01,0,*77
1529186883.52,59464,16.94,74070.8,3.33,-10.05,-10.05,0,*74
1529186884.74,59465,16.94,74068.8,3.31,-10.19,-10.09,0,*76
1529186885.96,59466,16.94,74068.0,3.31,-10.09,-10.09,0,*74
1529186887.17,59467,16.94,74070.8,3.31,-10.09,-10.05,0,*79
1529186888.39,59468,16.94,74070.5,3.31,-10.05,-10.05,0,*7A
1529186889.61,59469,16.94,74070.8,3.31,-10.19,-10.09,0,*7A
1529186890.84,59470,16.94,74070.3,3.31,-10.19,-10.09,0,*72
1529186892.06,59471,16.94,74072.0,3.31,-10.19,-10.05,0,*7F
1529186893.29,59472,16.94,74068.0,3.31,-10.19,-10.09,0,*70
1529186894.51,59473,16.94,74068.8,3.31,-10.23,-10.05,0,*74
1529186895.73,59474,16.94,74068.0,3.31,-10.19,-10.05,0,*7A
1529186896.96,59475,16.94,74068.3,3.31,-10.19,-10.05,0,*7B
1529186898.19,59476,17.0,74070.3,3.31,-10.19,-10.09,0,*74
1529186899.41,59477,16.94,74068.5,3.31,-10.19,-10.05,0,*79
1529186900.64,59478,16.94,74070.8,3.31,-10.19,-10.05,0,*76
1529186901.86,59479,17.0,74074.0,3.31,-10.19,-10.05,0,*77
1529186903.09,59480,16.94,74070.8,3.31,-10.19,-10.05,0,*71
1529186904.31,59481,16.94,74068.5,3.31,-10.19,-9.97,0,*43
1529186905.5,59482,16.94,74072.0,3.29,-10.09,-10.05,0,*7B
1529186906.71,59483,16.94,74068.8,3.31,-10.09,-9.93,0,*44
1529186907.91,59484,16.94,74070.8,3.29,-10.19,-9.97,0,*4F
1529186909.11,59485,16.94,74074.8,3.29,-10.19,-9.97,0,*4E
1529186910.31,59486,16.94,74070.3,3.29,-10.19,-9.93,0,*49
1529186911.52,59487,16.94,74070.8,3.29,-10.19,-10.05,0,*7F
1529186912.72,59488,16.94,74070.8,3.29,-10.19,-9.93,0,*47
1529186913.94,59489,16.94,74072.0,3.31,-10.19,-9.93,0,*4F
1529186915.16,59490,16.94,74074.0,3.31,-10.23,-9.97,0,*4A
1529186916.35,59491,16.94,74074.3,3.29,-10.23,-9.97,0,*42
1529186917.56,59492,16.94,74072.8,3.29,-10.19,-9.93,0,*4C
1529186918.77,59493,16.94,74072.3,3.31,-10.23,-9.93,0,*4D
1529186919.99,59494,16.94,74068.0,3.31,-10.23,-9.97,0,*4E